Wind_Speed
25 27 29 27 25 27 30 32 34 31 31 31 32 34 35 37 38 40 42 44 46 48 49 51 53 55 58 60 62 65 66 68 68 69 69 68 67 67 67 67 67 66 65 64
27 28 31 29 27 29 31 32 34 34 33 34 35 36 37 39 41 43 45 47 49 52 54 56 58 60 63 65 67 69 71 71 72 71 70 69 68 67 67 67 66 66 65 64
31 30 31 30 29 30 32 32 33 34 35 36 36 37 40 42 44 46 48 51 53 56 58 60 63 65 68 70 72 73 74 74 73 72 71 69 68 67 67 66 65 65 64 63
34 32 32 30 30 32 32 32 34 35 36 36 38 40 42 45 47 50 52 55 57 60 62 65 67 70 72 74 75 76 75 74 73 71 70 69 67 66 65 65 63 62 61 60
36 35 34 30 32 33 34 34 34 35 36 38 40 43 45 48 51 53 56 59 61 64 67 69 72 74 76 77 77 76 75 73 71 70 69 67 66 65 63 62 60 59 57 57
37 38 37 33 34 35 35 35 35 36 38 41 43 46 48 51 54 57 60 62 65 68 70 73 75 77 78 77 76 75 73 71 70 69 68 66 64 62 61 59 57 56 55 55
37 39 39 37 37 36 37 38 38 40 42 44 47 50 52 55 58 61 63 66 69 71 74 76 77 78 77 76 75 73 72 70 68 67 65 63 61 59 57 55 53 53 52 52
38 39 39 39 38 38 39 40 42 44 46 48 51 54 56 59 62 64 67 69 72 74 76 77 77 78 76 74 73 71 70 68 66 64 62 60 58 55 53 52 51 50 49 48
38 38 39 39 40 41 42 44 45 48 50 52 55 58 60 63 65 67 70 72 74 76 77 76 76 76 74 72 71 69 67 65 63 60 58 56 54 52 50 50 49 48 46 46
38 37 39 41 42 43 45 46 49 51 53 56 59 61 64 66 68 70 72 74 75 76 76 75 74 72 71 70 69 67 64 62 59 56 53 52 51 50 48 47 46 46 45 45
39 39 41 42 43 45 47 49 52 54 57 60 62 64 66 68 70 72 74 75 75 75 75 73 71 69 68 67 66 63 60 58 55 53 51 48 47 46 45 45 45 45 44 45
39 40 42 43 44 46 49 52 54 57 59 62 64 66 68 70 72 73 74 74 74 73 72 71 69 67 65 64 62 60 57 54 51 49 47 45 44 42 43 44 43 43 43 44
41 42 44 45 47 50 52 55 57 60 62 64 66 68 70 71 72 72 72 73 72 71 70 68 65 63 62 60 58 55 53 51 48 46 44 43 42 42 40 39 40 41 42 42
43 45 46 48 51 53 55 58 60 62 64 66 68 69 70 71 71 71 71 70 69 68 66 64 62 60 59 56 54 52 50 48 46 44 43 42 42 40 39 38 38 38 39 40
45 47 49 52 54 56 58 60 62 64 65 66 68 69 69 70 70 69 68 67 66 65 63 61 60 58 55 53 51 49 48 46 44 42 42 41 40 38 38 38 39 38 37 38
48 50 52 54 56 58 60 62 63 65 66 67 68 68 68 68 68 66 65 65 63 62 60 59 57 55 53 51 49 47 45 44 42 41 40 39 38 38 38 38 38 37 37 37
50 52 54 55 57 59 61 63 64 66 66 67 67 67 67 66 65 63 62 61 60 60 59 57 55 52 50 49 47 45 43 41 41 40 39 38 38 37 37 37 37 36 37 37
52 54 55 57 59 60 61 63 64 65 66 67 66 66 64 63 62 61 59 58 57 56 56 55 52 50 48 47 45 44 42 40 39 39 38 37 37 36 36 36 36 36 36 37
53 55 57 58 60 61 62 64 65 65 65 65 64 63 62 61 60 59 58 57 56 54 52 51 49 47 46 45 44 42 40 39 38 37 37 36 36 35 35 35 35 36 35 35
55 56 57 59 60 62 63 64 65 64 64 63 62 61 59 58 58 57 56 55 54 53 50 48 46 45 44 43 42 40 39 38 36 35 35 35 35 34 34 34 34 34 34 33
55 57 58 59 61 62 62 63 64 63 62 61 60 58 57 56 56 55 54 52 50 50 48 46 45 44 43 42 40 38 37 36 35 34 35 34 34 33 33 33 33 33 32 32
56 58 59 60 61 61 61 61 62 61 59 58 57 56 55 54 53 52 51 51 49 47 46 45 44 42 41 40 37 36 35 34 34 34 34 33 32 32 32 31 31 31 31 30
58 59 60 61 61 61 60 60 60 59 57 55 54 53 52 51 51 50 48 47 47 46 44 43 42 40 39 37 36 35 34 33 33 33 32 31 31 31 31 30 29 29 29 29
59 60 61 61 61 61 59 58 57 56 54 53 51 51 50 49 48 48 47 46 45 44 43 41 40 38 37 35 34 33 32 32 32 31 30 30 30 30 29 29 28 28 28 28
59 60 60 60 60 59 58 56 54 52 51 50 49 49 49 48 47 46 45 44 43 42 41 39 38 37 35 34 33 32 31 31 31 30 29 29 28 28 28 27 26 26 26 27
59 59 59 58 58 57 56 53 51 50 49 47 46 47 46 46 45 45 44 43 42 41 39 38 36 35 34 33 32 31 31 30 29 29 28 28 27 26 26 25 24 24 25 25
58 57 57 56 55 54 52 51 49 48 47 46 45 44 44 44 43 43 42 41 40 39 37 36 35 33 32 31 31 30 30 29 28 27 27 26 26 24 24 24 23 23 23 24
Wind_Direction
274 278 280 283 284 285 287 290 292 296 297 297 297 299 299 299 300 301 301 302 303 303 304 304 304 304 304 303 303 303 303 303 302 301 301 300 298 297 296 294 293 292 291 290
273 278 280 282 283 283 284 287 291 294 297 298 299 299 299 299 300 301 301 303 304 304 304 304 304 304 304 304 304 304 304 304 303 302 301 299 298 296 295 294 293 292 292 291
275 276 278 281 282 282 284 287 290 293 295 297 297 298 298 300 301 302 303 303 304 304 305 305 305 305 305 305 305 305 305 304 303 302 301 299 298 297 295 294 294 293 292 292
277 276 277 282 281 281 283 287 290 292 294 296 297 298 300 301 302 302 303 304 304 305 305 305 305 305 306 306 306 306 306 305 304 302 301 300 298 297 296 295 294 294 293 293
277 279 280 280 281 283 285 289 291 293 295 297 298 299 301 302 303 303 304 304 305 305 306 306 306 306 307 307 307 307 306 305 304 303 301 300 299 298 297 296 295 294 294 294
278 281 282 284 283 285 287 289 291 294 296 298 299 300 301 302 303 304 304 305 306 306 307 307 307 307 308 308 308 307 307 306 305 304 303 302 301 299 298 297 296 295 295 295
278 280 282 285 287 289 291 293 295 297 298 299 300 302 303 304 305 305 306 306 307 307 308 308 308 308 309 309 308 308 308 307 306 305 304 303 301 300 299 298 298 297 297 297
276 279 283 285 287 290 293 295 297 298 299 301 302 303 304 305 306 306 306 307 307 308 308 309 309 309 309 309 309 309 309 308 307 305 304 303 303 301 300 299 299 299 298 298
276 279 282 285 288 291 294 296 298 299 301 302 303 304 305 306 306 306 307 307 308 309 309 310 309 309 309 310 310 310 310 309 308 307 305 304 304 302 301 300 300 300 299 299
276 279 282 285 289 292 295 296 298 300 301 302 303 304 305 306 306 307 307 308 309 309 310 310 310 310 310 310 311 311 311 310 309 308 306 305 304 303 303 303 302 301 300 300
277 281 283 287 290 293 295 297 299 300 301 302 303 304 305 306 306 307 308 309 310 310 311 311 311 311 311 311 312 312 312 311 310 309 307 307 306 305 305 304 304 303 303 303
279 282 285 288 291 293 294 296 298 299 300 302 303 304 305 306 307 308 309 310 310 311 311 312 312 312 312 312 313 313 313 312 311 309 308 308 307 306 306 306 305 305 306 306
283 285 288 290 291 293 294 296 298 299 301 303 304 305 306 307 308 309 310 310 311 311 312 312 313 313 313 313 314 314 314 313 312 311 311 310 309 308 307 306 307 307 308 308
285 287 289 290 292 294 296 297 299 301 302 303 304 305 307 308 309 309 310 311 311 312 312 313 313 314 314 314 314 314 314 314 314 313 312 312 311 311 310 309 309 309 309 310
286 288 290 291 293 295 297 298 300 301 302 303 305 306 307 308 309 310 311 311 312 312 312 313 313 313 314 313 313 314 314 314 314 314 314 313 313 312 312 313 313 312 312 312
287 289 291 293 294 296 298 299 300 301 303 304 305 307 307 308 310 311 311 311 312 312 312 313 313 313 313 313 313 314 314 314 314 315 314 314 313 314 314 315 315 315 314 315
289 290 292 294 295 297 298 299 301 302 303 305 306 307 308 309 310 310 311 311 312 312 313 313 314 314 314 314 314 314 313 313 314 315 315 314 314 314 315 316 317 317 317 318
290 292 293 294 296 297 298 300 301 302 304 305 306 307 308 309 310 310 311 311 311 312 312 313 313 313 314 314 314 314 313 313 313 314 314 315 315 315 316 318 319 319 319 320
291 293 294 295 297 298 299 300 302 303 304 305 306 307 308 309 309 310 310 311 311 311 312 312 312 313 314 313 313 313 313 313 313 314 314 315 316 317 317 319 320 321 321 322
292 293 295 296 298 299 300 301 302 304 305 305 306 307 307 308 308 309 310 311 311 312 313 312 312 313 314 314 313 312 312 313 313 314 315 316 317 318 318 320 322 323 323 324
293 294 296 297 298 299 300 301 302 303 304 305 305 306 306 307 308 309 310 311 311 311 312 312 312 313 313 313 313 312 312 313 313 314 315 316 318 319 319 321 323 324 325 326
294 295 296 297 298 299 300 301 301 302 303 304 304 305 306 307 308 309 310 311 311 311 312 312 312 312 313 313 313 312 313 313 313 314 316 317 318 320 321 322 324 326 328 329
294 295 297 298 298 299 299 300 301 302 303 303 304 304 305 306 308 309 309 310 310 311 312 312 312 312 313 313 313 313 314 313 314 315 316 317 319 320 322 323 325 328 330 331
294 296 297 297 298 299 299 300 301 302 302 302 303 304 305 306 307 308 309 310 310 311 311 312 312 312 312 313 313 314 314 314 315 315 316 318 319 321 323 324 325 328 330 332
295 295 296 296 297 298 299 299 300 300 300 301 301 302 304 305 306 307 308 309 309 310 310 311 311 311 312 312 313 314 314 314 315 316 317 318 320 322 324 325 326 329 332 333
294 294 295 296 296 297 298 298 298 298 298 299 300 301 302 304 305 306 307 308 309 309 309 310 310 311 311 311 312 313 314 314 315 316 318 320 320 322 325 326 327 330 334 336
293 293 294 295 296 296 297 298 298 298 298 298 299 300 301 302 304 305 306 306 307 308 308 308 308 309 310 310 311 312 313 313 314 316 319 320 321 323 325 327 328 330 334 337
Height
5771 5769 5767 5768 5767 5763 5759 5757 5753 5753 5750 5748 5744 5740 5736 5731 5726 5721 5716 5710 5705 5699 5693 5687 5680 5674 5666 5659 5651 5643 5635 5627 5618 5609 5601 5592 5584 5576 5568 5560 5553 5546 5539 5532
5765 5762 5760 5760 5759 5756 5752 5749 5746 5744 5742 5738 5735 5731 5726 5721 5716 5711 5705 5699 5693 5687 5680 5673 5666 5659 5652 5644 5635 5626 5617 5608 5599 5590 5581 5573 5564 5556 5548 5540 5533 5526 5519 5512
5756 5755 5752 5753 5751 5747 5745 5742 5739 5736 5734 5730 5726 5721 5716 5711 5706 5700 5694 5688 5681 5674 5667 5659 5651 5644 5636 5627 5617 5608 5598 5589 5579 5570 5562 5553 5544 5536 5528 5521 5514 5506 5499 5493
5746 5746 5745 5747 5742 5738 5736 5734 5731 5727 5724 5720 5716 5711 5705 5700 5694 5688 5682 5675 5668 5660 5652 5644 5636 5627 5618 5608 5598 5588 5579 5569 5559 5550 5541 5533 5525 5516 5509 5501 5494 5487 5481 5474
5736 5735 5735 5737 5733 5729 5727 5726 5722 5718 5714 5710 5705 5700 5695 5689 5682 5676 5669 5661 5654 5645 5637 5628 5619 5609 5600 5590 5579 5569 5559 5550 5540 5530 5521 5513 5505 5498 5490 5483 5476 5469 5463 5456
5727 5724 5724 5727 5723 5720 5718 5716 5713 5708 5704 5699 5694 5689 5685 5677 5670 5663 5655 5647 5638 5630 5620 5610 5601 5591 5581 5571 5561 5550 5541 5531 5521 5511 5502 5494 5487 5479 5471 5464 5458 5452 5446 5439
5718 5714 5714 5715 5712 5710 5709 5706 5701 5697 5692 5687 5682 5676 5670 5663 5655 5648 5640 5631 5622 5613 5603 5593 5582 5572 5563 5552 5542 5532 5522 5512 5503 5493 5484 5475 5468 5461 5454 5448 5442 5436 5430 5424
5709 5706 5707 5703 5701 5699 5697 5693 5689 5684 5680 5675 5669 5662 5655 5648 5641 5632 5624 5615 5606 5597 5587 5575 5563 5553 5545 5534 5525 5515 5505 5495 5485 5476 5466 5458 5451 5444 5438 5432 5426 5421 5415 5409
5701 5700 5696 5693 5690 5687 5685 5681 5676 5671 5666 5661 5655 5648 5641 5634 5626 5617 5608 5599 5589 5579 5570 5559 5546 5535 5525 5516 5507 5497 5487 5478 5468 5459 5450 5442 5435 5429 5423 5417 5411 5406 5401 5395
5690 5689 5686 5682 5679 5676 5673 5668 5663 5658 5653 5647 5641 5634 5627 5619 5610 5601 5592 5582 5572 5562 5552 5542 5530 5519 5507 5498 5489 5480 5471 5462 5453 5444 5437 5429 5421 5415 5409 5403 5398 5392 5387 5382
5679 5678 5675 5672 5669 5665 5661 5656 5651 5645 5639 5633 5626 5619 5611 5603 5594 5585 5575 5565 5555 5544 5534 5524 5514 5504 5492 5482 5473 5465 5456 5447 5438 5430 5423 5416 5409 5402 5396 5391 5384 5379 5373 5368
5669 5668 5664 5662 5658 5654 5649 5644 5639 5633 5626 5619 5611 5604 5596 5587 5577 5568 5558 5548 5538 5528 5517 5508 5498 5488 5478 5468 5458 5449 5442 5433 5425 5418 5411 5404 5398 5392 5385 5379 5373 5366 5360 5354
5657 5655 5652 5649 5645 5641 5636 5631 5624 5618 5611 5604 5596 5587 5579 5570 5561 5551 5541 5531 5521 5511 5501 5492 5483 5473 5463 5454 5445 5436 5428 5420 5413 5406 5399 5392 5386 5380 5375 5370 5363 5356 5349 5343
5645 5643 5639 5635 5631 5626 5621 5615 5609 5602 5595 5587 5579 5571 5562 5554 5544 5534 5525 5515 5505 5496 5486 5477 5468 5459 5450 5441 5433 5425 5417 5409 5402 5395 5389 5382 5376 5370 5364 5358 5354 5347 5340 5333
5632 5629 5626 5621 5617 5612 5606 5600 5594 5587 5579 5572 5563 5554 5546 5537 5528 5519 5509 5499 5491 5481 5472 5463 5455 5447 5438 5430 5422 5414 5407 5399 5392 5386 5379 5373 5366 5360 5354 5348 5343 5337 5331 5324
5619 5615 5611 5607 5602 5597 5591 5584 5578 5571 5563 5556 5547 5539 5530 5521 5513 5504 5494 5485 5476 5468 5459 5451 5443 5434 5426 5418 5411 5404 5397 5389 5383 5376 5370 5364 5358 5352 5346 5340 5333 5327 5321 5314
5605 5601 5597 5592 5587 5581 5574 5568 5561 5554 5547 5539 5531 5523 5514 5506 5498 5490 5481 5472 5463 5454 5445 5437 5430 5422 5414 5407 5400 5393 5387 5381 5374 5368 5361 5355 5349 5343 5337 5331 5325 5318 5312 5305
5590 5586 5582 5577 5571 5566 5559 5552 5545 5538 5530 5523 5515 5507 5499 5491 5483 5476 5468 5460 5451 5443 5434 5426 5418 5411 5404 5397 5390 5383 5377 5371 5366 5359 5353 5347 5341 5335 5329 5323 5316 5310 5303 5297
5576 5571 5566 5560 5555 5549 5542 5535 5528 5521 5513 5506 5499 5492 5484 5476 5468 5461 5454 5446 5438 5431 5424 5416 5408 5401 5394 5387 5380 5374 5368 5363 5357 5351 5345 5339 5333 5327 5321 5315 5309 5302 5295 5289
5560 5555 5550 5544 5538 5532 5525 5518 5512 5505 5497 5490 5483 5477 5470 5463 5455 5448 5441 5434 5425 5417 5411 5404 5397 5391 5384 5378 5371 5365 5360 5354 5349 5343 5338 5332 5326 5320 5314 5308 5301 5295 5288 5282
5544 5539 5534 5528 5523 5516 5509 5502 5495 5489 5482 5475 5468 5462 5456 5450 5442 5435 5428 5422 5415 5407 5401 5394 5387 5381 5375 5369 5363 5357 5351 5346 5341 5336 5330 5325 5319 5313 5307 5301 5295 5288 5282 5276
5528 5523 5518 5512 5506 5501 5494 5486 5479 5473 5468 5461 5454 5448 5442 5436 5430 5423 5416 5409 5403 5397 5390 5384 5377 5371 5365 5360 5354 5349 5343 5338 5333 5328 5323 5317 5312 5306 5300 5295 5289 5282 5276 5270
5511 5506 5501 5495 5489 5484 5479 5472 5465 5459 5453 5447 5441 5434 5428 5423 5417 5411 5406 5399 5392 5386 5380 5374 5368 5362 5357 5351 5346 5341 5336 5331 5326 5321 5316 5310 5305 5300 5294 5289 5283 5277 5271 5265
5495 5490 5484 5478 5472 5467 5463 5457 5451 5445 5439 5433 5427 5421 5415 5410 5406 5399 5393 5387 5381 5375 5370 5364 5358 5353 5348 5343 5338 5333 5328 5324 5319 5314 5309 5304 5299 5294 5288 5283 5277 5272 5266 5260
5478 5473 5467 5462 5456 5451 5446 5442 5437 5431 5426 5420 5415 5409 5403 5398 5393 5388 5382 5376 5371 5365 5360 5355 5350 5345 5340 5335 5331 5326 5321 5317 5312 5307 5303 5298 5293 5288 5283 5278 5272 5267 5261 5256
5462 5456 5451 5446 5440 5435 5431 5426 5422 5418 5412 5408 5403 5398 5392 5387 5382 5376 5371 5366 5361 5356 5351 5346 5341 5336 5332 5328 5323 5319 5314 5310 5306 5301 5296 5292 5287 5283 5278 5273 5268 5263 5257 5252
5445 5440 5435 5431 5426 5420 5416 5412 5407 5403 5399 5394 5390 5386 5381 5376 5371 5366 5361 5356 5351 5346 5342 5337 5333 5328 5324 5320 5316 5312 5308 5304 5299 5295 5291 5286 5282 5277 5273 5268 5263 5259 5254 5249